Date,TemperatureHighF,TemperatureAvgF,TemperatureLowF,DewpointHighF,DewpointAvgF,DewpointLowF,HumidityHigh,HumidityAvg,HumidityLow,PressureMaxIn,PressureMinIn,WindSpeedMaxMPH,WindSpeedAvgMPH,GustSpeedMaxMPH,PrecipitationSumIn
2012-1-1,61,51,38,50,36,16,88,58,38,30.25,29.90,19,9,0,0.00
2012-1-2,38,29,22,25,17,12,88,62,41,30.37,30.18,16,8,0,0.00
2012-1-3,28,22,18,16,13,11,81,69,50,30.54,30.37,10,5,0,0.00
2012-1-4,47,32,17,25,17,11,82,56,34,30.41,30.10,11,3,0,0.00
2012-1-5,52,41,27,30,25,20,89,56,30,30.27,30.07,8,2,0,0.00
2012-1-6,63,54,41,41,30,26,62,42,26,30.08,29.93,10,4,0,0.00
2012-1-7,58,52,33,52,39,26,85,63,30,30.22,29.91,11,4,0,0.00
2012-1-8,52,37,24,33,27,21,91,71,39,30.37,30.22,5,1,0,0.00
2012-1-9,49,40,32,41,34,29,92,80,63,30.29,30.15,3,0,0,0.00
2012-1-10,50,36,25,38,30,23,94,82,52,30.22,29.96,4,1,0,0.00
2012-1-11,61,50,35,55,46,33,95,87,69,29.96,29.47,12,2,0,0.00
2012-1-12,49,40,24,45,37,19,93,87,76,29.85,29.47,17,7,0,0.00
2012-1-13,26,23,19,21,17,11,85,76,69,30.23,29.84,14,8,0,0.00
2012-1-14,35,28,18,29,22,15,97,79,53,30.29,30.15,8,2,0,0.00
2012-1-15,35,29,25,28,24,22,92,84,66,30.59,30.28,3,0,0,0.00
2012-1-16,57,46,25,37,28,22,91,52,35,30.44,30.07,12,7,0,0.00
2012-1-17,61,53,37,55,43,28,92,68,47,30.19,29.78,15,9,0,0.00
2012-1-18,36,31,23,28,22,19,86,69,55,30.35,30.19,11,3,0,0.00
2012-1-19,43,31,19,25,21,16,90,69,38,30.23,30.01,8,2,0,0.00
2012-1-20,45,37,29,41,30,25,87,77,63,30.22,29.88,6,1,0,0.00
2012-1-21,55,36,32,52,33,29,93,89,83,30.25,29.80,10,3,0,0.00
2012-1-22,59,43,32,51,39,30,95,86,72,30.24,29.95,7,2,0,0.00
2012-1-23,64,56,39,53,47,35,93,73,47,30.08,29.77,14,6,0,0.00
2012-1-24,53,43,33,39,36,30,92,76,55,30.28,30.08,9,3,0,0.00
2012-1-26,65,58,44,58,53,41,93,86,72,29.96,29.45,12,4,0,0.00
2012-1-27,56,41,36,53,38,34,93,87,78,30.09,29.49,12,6,0,0.00
2012-1-28,45,38,27,39,28,17,94,71,33,30.34,29.99,14,4,0,0.00
2012-1-29,50,38,26,23,21,17,81,54,27,30.34,30.17,14,4,0,0.00
2012-1-30,60,43,25,28,24,21,89,54,27,30.34,30.17,10,3,0,0.00
2012-1-31,65,58,51,28,23,21,33,26,19,30.19,30.03,10,6,0,0.00
2012-2-1,60,57,52,55,48,26,95,77,27,30.07,29.96,9,2,0,0.00
2012-2-2,56,48,35,53,42,31,95,81,49,30.33,29.96,7,2,0,0.00
2012-2-3,59,44,29,39,33,27,95,70,35,30.41,30.20,7,1,0,0.00
2012-2-4,47,45,41,46,42,36,95,90,69,30.20,29.97,3,0,0,0.00
2012-2-5,45,40,31,44,38,28,95,92,78,30.21,29.97,4,2,0,0.00
2012-2-6,46,33,26,37,30,25,96,88,66,30.23,30.15,7,0,0,0.00
2012-2-7,50,36,25,37,30,23,95,82,51,30.23,30.15,6,1,0,0.00
2012-2-8,37,35,33,33,32,30,93,87,80,30.30,30.18,6,1,0,0.00
2012-2-9,37,34,30,32,31,27,93,86,74,30.32,30.19,4,0,0,0.00
2012-2-10,37,33,30,32,30,26,93,87,67,30.19,29.93,5,1,0,0.00
2012-2-11,34,26,21,32,20,11,93,76,54,30.36,29.89,13,8,0,0.00
2012-2-12,35,25,16,20,14,10,79,65,54,30.42,30.31,10,5,0,0.00
2012-2-13,42,30,19,27,20,15,88,67,42,30.32,29.98,4,0,0,0.00
2012-2-14,42,39,35,40,34,24,94,83,53,30.11,29.88,8,2,0,0.00
2012-2-15,55,41,29,43,36,27,95,83,60,30.22,29.98,5,1,0,0.00
2012-2-16,54,48,45,51,45,40,96,89,70,30.14,29.95,11,3,0,0.00
2012-2-17,53,42,32,40,34,30,94,74,42,30.20,30.07,5,1,0,0.00
2012-2-18,54,43,31,37,33,29,93,69,46,30.07,29.98,6,1,0,0.00
2012-2-19,42,38,34,31,28,26,84,68,60,30.07,29.85,7,3,0,0.00
2012-2-20,43,33,22,31,26,19,92,75,51,30.31,30.09,6,2,0,0.00
2012-2-21,57,46,31,41,35,27,89,67,52,30.10,29.83,12,5,0,0.00
2012-2-22,59,49,37,46,39,29,89,71,36,29.89,29.45,12,3,0,0.00
2012-2-23,72,57,40,57,47,38,95,71,40,29.57,29.27,10,3,0,0.00
2012-2-24,63,49,36,57,40,28,94,71,45,29.98,29.30,20,9,0,0.00
2012-2-25,41,35,24,28,23,18,83,62,44,30.35,29.98,14,6,0,0.00
2012-2-26,58,38,20,26,20,14,92,57,19,30.40,30.21,5,1,0,0.00
2012-2-27,65,55,46,38,30,21,61,40,32,30.37,30.23,12,4,0,0.00
2012-2-28,69,49,29,46,32,24,85,55,28,30.38,30.02,5,1,0,0.00
2012-2-29,68,63,60,62,56,46,93,78,52,30.01,29.60,12,6,0,0.00
2012-3-1,62,54,41,46,36,33,82,52,35,29.86,29.67,11,5,0,0.00
2012-3-2,75,54,41,62,46,33,94,76,54,29.78,29.29,14,4,0,0.00
2012-3-3,52,44,35,38,30,23,89,60,33,29.84,29.63,14,7,0,0.00
2012-3-4,43,36,26,34,25,21,88,65,44,29.91,29.83,12,4,0,0.00
2012-3-5,36,32,26,32,29,24,93,86,69,30.46,29.78,9,2,0,0.00
2012-3-6,69,46,25,33,23,8,93,54,12,30.45,30.26,6,2,0,0.00
2012-3-7,69,60,49,45,35,21,52,40,25,30.35,30.17,12,6,0,0.00
2012-3-8,64,58,42,56,49,36,92,74,53,30.22,29.96,13,7,0,0.00
2012-3-9,54,43,33,36,29,22,92,62,29,30.44,30.22,14,4,0,0.00
2012-3-10,58,41,26,28,24,20,90,56,24,30.50,30.34,6,2,0,0.00
2012-3-11,73,54,32,35,26,-100,85,44,14,30.40,30.21,7,2,0,0.00
2012-3-12,68,63,56,57,48,34,79,60,38,30.21,30.01,9,4,0,0.00
2012-3-13,76,67,57,60,56,52,84,70,44,30.09,30.01,10,5,0,0.00
2012-3-14,79,63,48,58,51,46,95,67,34,30.16,30.06,7,2,0,0.00
2012-3-15,81,66,55,64,56,48,93,73,48,30.19,30.03,10,3,0,0.00
2012-3-16,68,62,57,62,58,54,94,87,74,30.14,30.04,5,1,0,0.00
2012-3-17,77,66,56,62,58,54,96,79,53,30.14,30.03,6,2,0,0.00
2012-3-18,79,68,59,62,59,57,94,75,50,30.14,30.01,8,2,0,0.00
2012-3-19,81,68,56,59,57,54,94,71,40,30.10,29.98,8,2,0,0.00
2012-3-21,85,74,56,64,58,52,92,62,33,30.11,29.97,6,2,0,0.00
2012-3-22,83,68,56,62,56,-100,96,72,34,30.10,29.98,6,-6,0,0.00
2012-3-23,71,66,62,65,61,58,91,83,69,30.01,29.73,7,1,0,0.00
2012-3-24,67,58,53,60,55,51,95,91,72,29.86,29.72,11,1,0,0.00
2012-3-26,64,55,47,53,45,22,96,72,21,30.24,30.01,7,3,0,0.00
2012-3-27,74,52,35,40,32,28,86,52,19,30.29,30.05,6,1,0,0.00
2012-3-28,80,69,53,61,53,39,90,58,48,30.05,29.88,14,6,0,0.00
2012-3-29,71,60,47,58,48,42,95,68,36,30.04,29.92,5,1,0,0.00
2012-3-30,80,63,48,62,52,43,86,68,47,29.96,29.75,11,3,0,0.00
2012-3-31,69,60,48,59,54,45,95,82,63,29.91,29.75,8,2,0,0.00
2012-4-1,70,54,41,61,50,39,95,88,68,29.91,29.72,5,1,0,0.00
2012-4-2,75,65,55,61,54,48,95,72,38,29.91,29.69,6,2,0,0.00
2012-4-3,83,66,52,68,54,39,85,64,49,29.93,29.79,9,2,0,0.00
2012-4-4,79,65,56,64,58,54,94,80,54,29.84,29.67,10,2,0,0.00
2012-4-5,62,55,47,58,44,33,95,71,38,29.88,29.72,7,3,0,0.00
2012-4-6,62,48,36,38,34,31,81,61,36,30.20,29.89,8,3,0,0.00
2012-4-7,69,52,32,38,31,21,94,52,16,30.31,30.18,5,2,0,0.00
2012-4-8,66,54,42,47,39,27,84,60,24,30.19,30.13,11,3,0,0.00
2012-4-9,69,53,35,41,35,26,93,57,23,30.15,29.94,15,5,0,0.00
2012-4-10,60,52,42,37,28,19,74,43,21,30.06,29.94,14,6,0,0.00
2012-4-11,49,41,29,30,27,23,89,60,41,30.27,30.07,8,2,0,0.00
2012-4-12,61,44,27,36,30,25,94,64,30,30.34,30.16,7,1,0,0.00
2012-4-13,69,52,31,40,33,28,94,55,22,30.26,30.16,7,2,0,0.00
2012-4-14,78,64,48,54,47,39,75,54,40,30.18,30.00,8,2,0,0.00
2012-4-15,83,73,66,57,51,-100,55,48,34,30.09,29.95,11,6,0,0.00
2012-4-16,77,72,58,62,56,47,74,57,40,30.17,29.91,14,7,0,0.00
2012-4-17,62,56,50,50,46,43,91,71,53,30.34,30.17,5,1,0,0.00
2012-4-18,69,58,51,51,46,42,85,67,38,30.23,30.04,6,1,0,0.00
2012-4-19,74,58,45,52,47,43,95,73,35,30.11,29.91,4,1,0,0.00
2012-4-20,76,65,47,59,53,44,95,68,46,29.91,29.75,10,3,0,0.00
2012-4-21,62,52,46,55,49,44,93,89,78,29.92,29.75,7,3,0,0.00
2012-4-22,48,46,43,44,38,-100,93,79,63,29.91,29.83,8,3,0,0.00
2012-4-23,58,48,41,36,28,21,72,49,24,29.86,29.77,13,7,0,0.00
2012-4-24,63,51,36,46,32,19,75,50,26,29.81,29.76,16,6,0,0.00
2012-4-25,77,61,50,64,55,47,94,81,52,29.85,29.70,5,2,0,0.00
2012-4-26,79,70,62,67,60,47,92,72,48,29.95,29.64,11,6,0,0.00
2012-4-27,66,55,41,48,39,35,80,57,32,30.16,29.94,7,3,0,0.00
2012-4-28,82,63,48,64,50,37,78,63,47,30.09,29.92,9,3,0,0.00
2012-4-29,82,66,54,66,57,-100,92,76,52,30.16,30.03,7,1,0,0.00
2012-4-30,83,72,59,65,60,57,94,71,44,30.09,29.94,10,3,0,0.00
2012-5-1,83,71,62,71,65,60,95,82,52,30.09,29.92,7,1,0,0.00
2012-5-2,87,74,61,69,65,59,96,76,49,30.07,29.95,10,3,0,0.00
2012-5-3,82,73,61,70,66,60,96,81,61,30.12,30.00,7,1,0,0.00
2012-5-4,84,73,65,70,66,62,95,82,57,30.03,29.87,7,2,0,0.00
2012-5-5,78,69,64,68,65,62,95,86,67,29.98,29.87,14,2,0,0.00
2012-5-6,84,70,60,70,63,-100,96,82,50,30.03,29.88,3,0,0,0.00
2012-5-7,82,71,62,68,62,-100,96,77,55,29.91,29.77,8,-12,0,0.00
2012-5-8,74,68,59,66,63,56,95,86,60,29.88,29.77,10,3,0,0.00
2012-5-9,72,63,54,58,52,41,95,70,35,29.88,29.77,11,3,0,0.00
2012-5-10,68,57,45,49,45,39,95,67,36,30.03,29.85,6,2,0,0.00
2012-5-11,74,58,41,52,44,39,95,67,31,30.19,30.03,5,1,0,0.00
2012-5-12,73,59,46,62,52,44,95,80,57,30.26,30.16,2,0,0,0.00
2012-5-13,64,61,60,63,59,-100,96,95,93,30.19,30.02,2,0,0,0.00
2012-5-14,69,62,56,63,60,54,96,90,74,30.03,29.96,4,1,0,0.00
2012-5-15,77,64,54,63,57,52,97,81,47,30.04,29.96,3,0,0,0.00
2012-5-16,81,67,51,64,55,49,96,71,37,30.00,29.90,6,2,0,0.00
2012-5-17,76,66,57,61,57,52,94,75,56,30.06,29.96,5,2,0,0.00
2012-5-18,81,65,47,63,55,45,95,72,44,30.09,30.00,4,1,0,0.00
2012-5-19,85,69,53,66,58,51,96,73,39,30.12,30.04,3,0,0,0.00
2012-5-20,83,70,57,69,61,-100,96,77,50,30.14,30.01,3,0,0,0.00
2012-5-21,81,66,57,70,62,55,96,85,60,30.02,29.91,9,2,0,0.00
2012-5-22,71,64,59,64,61,58,96,89,74,29.94,29.85,3,0,0,0.00
2012-5-23,78,66,57,67,61,56,96,84,59,29.92,29.84,3,0,0,0.00
2012-5-24,84,71,59,67,62,58,96,75,46,29.95,29.84,4,1,0,0.00
2012-5-25,88,76,61,71,64,57,90,70,47,30.06,29.90,6,2,0,0.00
2012-5-26,91,77,65,72,67,62,96,74,40,30.14,30.03,5,1,0,0.00
2012-5-27,93,78,64,76,69,62,96,75,45,30.07,29.95,4,0,0,0.00
2012-5-28,90,79,68,74,70,66,95,75,51,29.99,29.85,5,1,0,0.00
2012-5-29,78,72,68,71,68,65,94,86,69,29.89,29.80,4,1,0,0.00
2012-5-30,84,70,62,72,62,58,96,79,42,29.87,29.81,9,1,0,0.00
2012-5-31,84,69,53,66,58,51,95,71,43,29.89,29.67,6,1,0,0.00
2012-6-1,78,63,57,63,58,50,93,84,55,29.90,29.63,11,4,0,0.00
2012-6-2,71,60,46,55,50,44,95,71,42,29.96,29.88,8,3,0,0.00
2012-6-3,81,67,53,63,56,-100,94,72,43,29.93,29.82,9,3,0,0.00
2012-6-4,78,66,58,64,59,55,95,82,48,29.84,29.77,8,2,0,0.00
2012-6-5,75,64,55,59,54,49,96,72,42,29.89,29.78,6,2,0,0.00
2012-6-6,74,63,51,57,54,49,95,73,49,30.01,29.89,5,1,0,0.00
2012-6-7,80,65,48,60,52,46,96,67,32,30.09,30.01,6,1,0,0.00
2012-6-8,85,68,49,60,54,47,95,65,32,30.10,29.97,3,0,0,0.00
2012-6-9,87,71,54,62,56,50,96,64,29,30.05,29.94,5,1,0,0.00
2012-6-10,84,71,59,67,60,-100,95,75,49,30.05,29.97,5,1,0,0.00
2012-6-11,77,70,66,72,66,62,95,89,81,29.99,29.92,3,0,0,0.00
2012-6-13,82,75,61,61,57,54,86,55,38,30.06,30.00,6,2,0,0.00
2012-6-14,84,69,50,58,54,48,95,65,34,30.10,30.03,5,1,0,0.00
2012-6-15,88,72,56,71,62,54,95,75,46,30.15,30.02,6,1,0,0.00
2012-6-16,85,75,65,70,67,63,95,76,58,30.18,30.03,8,2,0,0.00
2012-6-17,84,74,65,69,65,-100,96,76,56,30.05,29.92,10,2,0,0.00
2012-6-18,89,78,67,66,64,61,91,62,41,29.99,29.90,8,2,0,0.00
2012-6-19,91,79,66,68,63,60,84,61,38,30.13,29.99,6,1,0,0.00
2012-6-20,92,79,64,70,66,62,95,68,41,30.16,30.01,4,1,0,0.00
2012-6-21,92,81,68,71,66,63,95,66,39,30.04,29.88,7,2,0,0.00
2012-6-22,88,77,66,69,65,59,94,69,40,29.92,29.85,7,2,0,0.00
2012-6-23,91,75,58,65,58,53,95,63,28,29.99,29.91,5,1,0,0.00
2012-6-24,94,78,64,65,61,56,92,61,29,29.99,29.85,5,1,0,0.00
2012-6-25,89,76,62,67,60,47,95,62,34,29.91,29.80,7,2,0,0.00
2012-6-26,81,68,49,51,48,46,90,52,29,29.97,29.89,7,2,0,0.00
2012-6-27,90,70,49,57,50,44,94,56,22,30.05,29.93,5,1,0,0.00
2012-6-28,102,80,56,64,57,53,92,53,23,29.97,29.84,10,3,0,0.00
2012-6-29,104,82,68,71,60,-100,80,53,27,29.90,29.76,10,-26,0,0.00
2012-6-30,104,88,70,70,65,59,84,51,24,29.88,29.77,9,2,0,0.00
2012-7-1,102,85,70,70,66,60,91,59,28,30.08,29.82,9,2,0,0.00
2012-7-2,95,81,66,71,67,63,96,67,36,30.03,29.91,8,2,0,0.00
2012-7-3,95,83,68,69,65,60,88,58,32,30.01,29.87,7,2,0,0.00
2012-7-4,99,84,68,71,67,62,93,62,32,29.98,29.86,6,2,0,0.00
2012-7-5,98,77,68,73,69,66,93,78,42,30.03,29.88,7,2,0,0.00
2012-7-6,99,81,66,72,68,65,96,69,37,30.01,29.90,5,1,0,0.00
2012-7-7,101,86,71,75,70,63,95,63,29,29.98,29.86,4,1,0,0.00
2012-7-8,101,85,74,74,71,67,93,67,33,30.01,29.83,9,3,0,0.00
2012-7-9,81,76,71,72,71,67,95,85,72,30.03,29.95,4,1,0,0.00
2012-7-10,88,78,68,70,66,61,95,70,42,30.05,29.98,5,1,0,0.00
2012-7-11,88,76,65,72,66,63,96,73,46,30.09,30.03,6,1,0,0.00
2012-7-12,84,73,66,69,67,64,94,81,59,30.13,30.07,5,1,0,0.00
2012-7-13,79,72,69,74,70,68,96,92,79,30.15,30.09,4,0,0,0.00
2012-7-14,87,76,69,75,71,68,96,85,61,30.17,30.10,7,2,0,0.00
2012-7-15,86,75,69,75,71,68,96,88,66,30.22,30.09,5,1,0,0.00
2012-7-16,90,78,70,76,72,68,96,83,56,30.12,29.96,17,2,0,0.00
2012-7-17,93,82,70,76,73,68,96,77,52,30.03,29.91,6,2,0,0.00
2012-7-18,92,79,71,77,73,69,95,84,54,30.03,29.93,7,1,0,0.00
2012-7-19,92,76,69,78,71,68,97,87,60,30.04,29.90,10,2,0,0.00
2012-7-20,86,75,70,74,71,68,95,86,65,30.02,29.90,6,2,0,0.00
2012-7-21,83,73,68,71,68,66,93,84,61,30.11,30.02,4,1,0,0.00
2012-7-22,90,76,64,75,69,63,97,80,52,30.19,30.10,6,1,0,0.00
2012-7-23,91,81,72,77,72,70,95,78,52,30.17,30.03,7,2,0,0.00
2012-7-24,88,81,76,77,74,71,92,79,65,30.06,29.92,8,2,0,0.00
2012-7-25,94,83,72,78,74,70,96,77,54,29.97,29.85,6,2,0,0.00
2012-7-26,94,85,76,77,74,72,91,71,55,29.88,29.75,10,4,0,0.00
2012-7-27,89,78,68,75,71,63,94,79,54,30.09,29.81,10,3,0,0.00
2012-7-28,85,74,64,71,67,62,96,79,53,30.09,29.94,6,2,0,0.00
2012-7-29,85,73,63,70,65,61,96,78,46,30.12,30.02,3,0,0,0.00
2012-7-30,88,75,63,72,66,61,96,76,47,30.05,29.93,3,0,0,0.00
2012-7-31,90,78,67,73,68,64,96,73,43,29.96,29.87,5,1,0,0.00
2012-8-1,91,79,69,75,70,67,95,75,48,29.93,29.84,6,2,0,0.00
2012-8-2,91,79,67,75,69,66,96,75,44,29.95,29.86,3,0,0,0.00
2012-8-3,83,74,70,76,70,67,95,88,71,29.99,29.87,5,1,0,0.00
2012-8-4,88,79,71,77,73,69,96,82,67,30.08,29.97,7,2,0,0.00
2012-8-5,80,77,74,75,72,71,94,86,75,30.15,30.06,5,1,0,0.00
2012-8-6,85,77,72,76,72,70,95,85,65,30.16,30.03,2,0,0,0.00
2012-8-7,89,78,70,74,70,67,96,79,51,30.06,29.96,3,0,0,0.00
2012-8-8,92,78,66,75,68,63,96,75,40,30.03,29.94,5,1,0,0.00
2012-8-9,81,71,67,73,68,64,96,91,60,29.97,29.81,7,1,0,0.00
2012-8-10,81,73,66,72,65,59,96,78,53,29.91,29.75,10,3,0,0.00
2012-8-11,77,67,57,62,59,55,95,76,55,30.05,29.91,6,2,0,0.00
2012-8-12,81,68,54,63,57,51,96,72,36,30.10,30.03,7,1,0,0.00
2012-8-13,80,70,57,66,62,55,95,76,51,30.07,29.93,5,1,0,0.00
2012-8-14,81,72,65,71,66,62,93,83,66,29.97,29.89,5,1,0,0.00
2012-8-15,83,70,63,68,65,60,95,84,50,30.04,29.93,4,0,0,0.00
2012-8-16,87,72,58,69,63,57,96,75,42,30.10,29.91,6,1,0,0.00
2012-8-17,77,71,66,69,66,61,94,84,65,29.99,29.88,6,2,0,0.00
2012-8-18,83,69,56,64,58,52,96,72,35,30.02,29.90,3,1,0,0.00
2012-8-19,82,69,60,67,60,57,95,76,44,29.94,29.86,3,0,0,0.00
2012-8-20,82,67,53,60,54,50,96,68,35,30.03,29.93,4,1,0,0.00
2012-8-21,81,66,53,61,56,51,96,75,37,30.14,30.02,7,1,0,0.00
2012-8-22,85,68,53,64,55,50,96,71,33,30.19,30.10,5,1,0,0.00
2012-8-23,88,71,54,65,57,52,96,68,33,30.19,30.09,3,0,0,0.00
2012-8-24,91,74,58,66,59,54,96,66,30,30.16,30.06,5,1,0,0.00
2012-8-25,92,75,62,68,62,56,96,70,31,30.16,30.08,5,1,0,0.00
2012-8-26,92,75,61,68,63,59,95,72,34,30.17,30.06,6,1,0,0.00
2012-8-27,92,78,65,70,66,63,96,71,39,30.13,29.97,8,2,0,0.00
2012-8-28,86,75,67,74,70,64,96,85,52,30.07,29.98,4,0,0,0.00
2012-8-29,88,73,59,67,61,58,96,71,38,30.08,29.99,5,1,0,0.00
2012-8-30,93,75,56,70,62,54,96,68,37,30.13,30.04,5,1,0,0.00
2012-8-31,88,79,68,73,70,66,96,77,57,30.22,30.11,8,2,0,0.00
2012-9-1,90,80,72,74,71,69,95,76,53,30.16,30.01,8,2,0,0.00
2012-9-2,87,78,72,73,71,69,95,79,60,30.02,29.85,8,2,0,0.00
2012-9-3,83,75,71,74,71,69,95,88,73,29.94,29.86,4,1,0,0.00
2012-9-4,87,77,69,73,71,68,96,83,58,29.94,29.86,5,1,0,0.00
2012-9-5,88,76,69,78,71,67,96,87,62,29.93,29.82,10,1,0,0.00
2012-9-6,83,73,68,73,69,67,96,88,68,30.02,29.89,3,0,0,0.00
2012-9-7,89,76,65,74,69,64,96,80,53,30.00,29.77,6,1,0,0.00
2012-9-8,80,68,59,70,63,57,94,85,59,29.97,29.71,12,2,0,0.00
2012-9-9,77,64,52,60,55,50,96,75,44,30.09,29.96,7,2,0,0.00
2012-9-10,77,63,51,59,53,49,96,74,41,30.23,30.09,4,1,0,0.00
2012-9-11,81,63,47,60,53,45,96,74,41,30.31,30.22,3,0,0,0.00
2012-9-12,84,68,55,65,59,53,96,77,43,30.35,30.24,4,1,0,0.00
2012-9-13,81,70,61,68,62,59,95,78,50,30.35,30.24,6,1,0,0.00
2012-9-14,83,69,57,69,61,56,96,78,44,30.28,30.20,5,1,0,0.00
2012-9-15,76,65,56,60,54,48,90,71,39,30.33,30.18,5,1,0,0.00
2012-9-16,76,64,56,63,57,53,94,79,53,30.19,30.07,2,0,0,0.00
2012-9-17,69,65,60,68,64,58,96,94,91,30.09,29.80,2,0,0,0.00
2012-9-18,67,64,52,66,61,48,96,91,71,30.04,29.69,10,2,0,0.00
2012-9-19,69,54,41,52,43,35,96,72,33,30.24,30.04,4,1,0,0.00
2012-9-20,78,60,42,58,50,40,96,75,40,30.16,30.02,7,2,0,0.00
2012-9-21,79,68,56,62,58,53,94,70,52,30.07,29.87,6,2,0,0.00
2012-9-22,74,69,54,60,52,37,75,55,33,30.18,29.88,11,6,0,0.00
2012-9-23,64,49,36,44,38,-100,95,72,41,30.31,30.18,6,1,0,0.00
2012-9-24,70,51,36,48,41,34,96,73,35,30.36,30.16,4,0,0,0.00
2012-9-25,71,58,45,62,52,43,94,82,54,30.24,30.06,4,1,0,0.00
2012-9-26,83,70,60,67,60,56,91,73,53,30.16,30.09,8,2,0,0.00
2012-9-27,77,68,62,66,63,60,95,85,64,30.20,30.12,6,1,0,0.00
2012-9-28,70,65,63,68,64,62,96,94,86,30.14,30.05,7,1,0,0.00
2012-9-29,72,64,53,62,59,51,97,86,55,30.09,29.98,4,1,0,0.00
2012-9-30,74,59,47,61,53,46,96,82,48,30.01,29.87,5,1,0,0.00
2012-10-1,62,59,55,61,58,54,96,95,93,29.90,29.67,4,1,0,0.00
2012-10-2,77,68,62,70,63,60,97,86,61,29.97,29.68,8,2,0,0.00
2012-10-3,74,64,55,60,56,53,94,77,52,30.21,29.97,5,1,0,0.00
2012-10-4,77,62,52,62,56,51,96,81,50,30.31,30.20,7,2,0,0.00
2012-10-5,78,64,52,64,57,51,96,81,49,30.24,29.97,7,1,0,0.00
2012-10-6,69,53,45,60,43,34,92,72,37,30.19,29.95,11,3,0,0.00
2012-10-7,58,49,40,45,41,36,93,76,45,30.24,30.14,7,1,0,0.00
2012-10-8,55,45,39,46,41,37,94,86,63,30.31,30.21,4,0,0,0.00
2012-10-9,61,46,35,47,40,33,96,82,46,30.27,30.09,3,1,0,0.00
2012-10-10,61,51,40,50,43,35,95,76,42,30.30,30.06,12,3,0,0.00
2012-10-11,66,46,30,43,36,28,95,73,33,30.38,30.24,6,1,0,0.00
2012-10-12,67,50,41,48,43,39,94,79,42,30.38,30.28,4,0,0,0.00
2012-10-13,77,59,41,62,50,39,95,76,51,30.38,30.15,7,2,0,0.00
2012-10-14,76,69,65,63,58,54,80,67,58,30.15,29.85,11,6,0,0.00
2012-10-15,69,58,44,62,47,40,90,70,45,30.02,29.85,12,5,0,0.00
2012-10-16,69,50,36,46,41,34,95,74,35,30.09,29.91,4,0,0,0.00
2012-10-17,76,60,47,53,46,41,92,64,38,29.93,29.68,7,2,0,0.00
2012-10-18,66,59,48,54,44,29,90,61,26,29.78,29.61,12,5,0,0.00
2012-10-19,61,53,44,42,40,37,83,63,43,29.83,29.68,10,3,0,0.00
2012-10-20,55,51,46,45,43,41,90,76,66,30.06,29.83,7,2,0,0.00
2012-10-21,71,55,44,49,46,42,94,75,41,30.21,30.06,4,1,0,0.00
2012-10-22,78,60,48,57,51,45,93,74,42,30.23,30.13,7,1,0,0.00
2012-10-23,80,64,52,57,50,46,92,66,33,30.18,30.08,9,2,0,0.00
2012-10-24,80,65,53,57,51,48,92,66,35,30.21,30.08,7,1,0,0.00
2012-10-25,81,63,46,56,50,44,97,66,34,30.14,30.02,7,1,0,0.00
2012-10-26,72,62,49,60,54,46,92,75,56,30.11,30.02,8,2,0,0.00
2012-10-27,49,48,46,47,45,43,94,91,86,30.13,30.04,7,3,0,0.00
2012-10-28,48,46,43,44,42,38,92,85,80,30.11,30.02,7,4,0,0.00
2012-10-29,44,43,39,40,34,28,89,73,54,30.07,29.83,13,7,0,0.00
2012-10-30,44,40,39,40,36,30,95,85,58,29.83,29.65,13,10,0,0.00
2012-10-31,48,43,40,40,36,33,92,79,59,29.93,29.78,10,5,0,0.00
2012-11-1,54,46,39,40,32,22,93,62,28,29.99,29.92,11,4,0,0.00
2012-11-2,56,49,35,37,32,29,84,53,40,30.13,29.89,6,3,0,0.00
2012-11-3,51,40,28,42,34,26,95,82,60,30.24,30.08,5,1,0,0.00
2012-11-4,52,43,36,40,37,33,94,80,56,30.20,30.12,6,1,0,0.00
2012-11-5,53,39,27,36,31,25,94,77,48,30.24,30.11,5,1,0,0.00
2012-11-6,54,42,28,39,33,26,93,73,47,30.14,29.96,6,1,0,0.00
2012-11-7,49,44,35,42,39,33,92,84,71,30.15,29.93,5,1,0,0.00
2012-11-8,53,38,28,38,31,26,95,78,41,30.32,30.15,5,1,0,0.00
2012-11-9,65,44,27,41,33,25,95,70,31,30.37,30.23,4,0,0,0.00
2012-11-10,75,56,40,43,38,35,85,55,26,30.35,30.23,6,1,0,0.00
2012-11-11,72,59,39,47,38,33,85,50,24,30.38,30.16,8,3,0,0.00
2012-11-12,65,52,31,57,45,29,93,79,54,30.49,30.12,12,3,0,0.00
2012-11-13,46,33,24,34,27,22,95,80,48,30.58,30.49,4,0,0,0.00
2012-11-14,48,34,23,32,26,-100,94,76,49,30.56,30.42,5,1,0,0.00
2012-11-15,52,36,24,34,28,22,93,77,47,30.44,30.36,3,1,0,0.00
2012-11-16,54,37,25,36,29,23,94,75,42,30.53,30.41,5,1,0,0.00
2012-11-17,61,41,25,36,29,23,94,68,28,30.59,30.48,5,1,0,0.00
2012-11-18,65,44,27,34,27,20,93,58,18,30.51,30.41,3,0,0,0.00
2012-11-19,61,44,28,39,33,25,91,68,37,30.43,30.26,4,0,0,0.00
2012-11-20,65,51,39,46,39,35,90,66,36,30.26,30.11,3,0,0,0.00
2012-11-21,65,50,38,47,40,35,94,71,39,30.27,30.14,5,1,0,0.00
2012-11-22,69,49,32,42,38,30,95,69,35,30.29,30.14,5,1,0,0.00
2012-11-23,59,50,38,48,37,25,88,61,41,30.23,30.06,14,7,0,0.00
2012-11-24,37,31,22,26,22,18,85,68,53,30.32,30.21,9,4,0,0.00
2012-11-25,55,38,21,27,22,18,90,59,27,30.24,30.03,10,2,0,0.00
2012-11-26,52,41,30,42,33,23,93,74,42,30.25,30.12,1,0,0,0.00
2012-11-27,42,38,30,40,35,27,94,91,83,30.40,30.23,5,2,0,0.00
2012-11-28,44,35,26,33,29,23,94,81,54,30.53,30.39,6,1,0,0.00
2012-11-29,55,36,22,34,26,20,94,71,30,30.51,30.35,6,1,0,0.00
2012-11-30,61,46,31,42,36,28,92,71,46,30.39,30.26,11,2,0,0.00
2012-12-1,66,52,41,50,44,37,93,74,47,30.38,30.25,7,1,0,0.00
2012-12-2,70,64,59,54,50,46,73,62,55,30.27,30.14,10,6,0,0.00
2012-12-3,73,66,58,56,53,49,77,63,53,30.25,30.15,7,2,0,0.00
2012-12-4,70,64,49,57,53,46,91,69,61,30.23,30.09,10,4,0,0.00
2012-12-5,56,45,33,45,40,31,97,83,51,30.39,30.26,4,0,0,0.00
2012-12-6,55,41,28,48,35,-100,94,84,67,30.31,30.08,4,0,0,0.00
2012-12-7,62,58,52,54,51,48,90,78,72,30.09,29.93,6,2,0,0.00
2012-12-8,61,58,53,57,55,51,94,88,80,30.04,29.91,5,2,0,0.00
2012-12-9,64,58,53,59,56,51,96,92,78,30.03,29.80,9,2,0,0.00
2012-12-10,64,50,35,57,47,31,94,90,75,30.02,29.70,9,4,0,0.00
2012-12-11,37,32,25,32,27,23,92,80,65,30.34,30.01,8,2,0,0.00
2012-12-12,44,29,20,31,24,18,97,82,49,30.50,30.34,4,1,0,0.00
2012-12-13,51,32,20,34,26,18,94,81,45,30.50,30.38,2,0,0,0.00
2012-12-14,59,38,23,37,27,21,95,71,26,30.44,30.25,5,0,0,0.00
2012-12-15,60,50,35,48,38,31,87,66,45,30.26,29.92,7,2,0,0.00
2012-12-16,63,60,57,55,53,48,83,78,68,29.94,29.74,7,4,0,0.00
2012-12-17,60,54,43,55,50,41,96,87,76,29.82,29.58,13,1,0,0.00
2012-12-18,51,45,38,46,38,31,94,80,47,29.98,29.67,13,5,0,0.00
2012-12-19,58,49,37,43,38,32,91,68,51,30.13,29.91,9,2,0,0.00
2012-12-20,56,47,35,48,41,28,89,78,65,29.75,29.45,22,10,0,0.00
2012-12-21,35,32,30,29,25,22,85,76,68,30.22,29.75,15,11,0,0.00
2012-12-22,39,31,25,25,22,20,86,71,52,30.40,30.20,9,4,0,0.00
2012-12-23,54,39,23,38,28,20,90,68,45,30.20,30.02,7,2,0,0.00
2012-12-24,51,47,42,48,44,39,94,92,87,30.04,29.84,7,1,0,0.00
2012-12-25,45,37,33,41,32,28,87,82,78,30.20,29.95,7,4,0,0.00
2012-12-26,48,40,33,46,38,29,94,90,84,29.96,29.45,14,6,0,0.00
2012-12-27,33,32,31,29,26,25,86,81,77,30.21,29.96,11,4,0,0.00
2012-12-28,41,36,31,35,30,26,93,81,69,30.19,29.80,4,1,0,0.00
2012-12-29,38,34,29,36,31,22,95,88,75,30.23,29.72,13,6,0,0.00
2012-12-30,36,30,25,24,22,20,88,74,57,30.52,30.30,12,4,0,0.00
2012-12-31,41,33,23,34,26,21,92,78,60,30.44,30.14,4,1,0,0.00
2013-1-1,38,36,34,36,34,32,95,93,89,30.15,30.04,4,0,0,0.00